Regional Weather Roundup
Issued by NWS

Home | Current Version | Previous Version | Text Only | Print | Product List | Glossary Off
Versions: 1 2 3 4 5 6 7 8 9 10 11 12 13 14 15 16 17 18 19 20 21 22 23 24 25 26 27 28 29 30 31 32 33 34 35 36 37 38 39 40 41 42 43 44 45 46 47 48 49 50

000
ASUS45 KBOU 281807
RWRCO

WEATHER ROUNDUP FOR COLORADO
NATIONAL WEATHER SERVICE DENVER/BOULDER CO
1200 PM MDT THU AUG 28 2014

NOTE: "FAIR" INDICATES FEW OR NO CLOUDS BELOW 12000 FEET WITH NO
SIGNIFICANT WEATHER AND/OR OBSTRUCTIONS TO VISIBILITY.

COZ001>005-013-030-031-281900-
...NORTHWEST COLORADO...

CITY           SKY/WX    TMP DP  RH WIND       PRES   REMARKS
CRAIG          PTSUNNY   61  51  70 NW7       30.32S
HAYDEN         PTSUNNY   55  48  76 W5        30.33S
MEEKER         PTSUNNY   61  51  70 NE3       30.33F
MOUNT WERNER   NOT AVBL
STEAMBOAT SPGS CLOUDY    52  49  92 SW6       30.34R
WALDEN         CLOUDY    46  43  87 NW3       30.37R
$$

COZ006>008-011-281900-
...WEST CENTRAL VALLEYS...

CITY           SKY/WX    TMP DP  RH WIND       PRES   REMARKS
GRAND JUNCTION MOSUNNY   68  53  58 SE7       30.26F
MONTROSE       CLOUDY    65  49  56 SE7       30.33F
EAGLE          CLOUDY    55  52  88 CALM      30.25F
RIFLE          PTSUNNY   60  52  74 CALM      30.30S
DELTA          CLOUDY    67  53  59 SE3       30.30S
NUCLA          PTSUNNY   64  46  52 CALM      30.35S
$$

COZ017>023-064>068-281900-
...SOUTHWEST COLORADO...

CITY           SKY/WX    TMP DP  RH WIND       PRES   REMARKS
DURANGO        SUNNY     68  40  35 CALM      30.27F
CORTEZ         MOSUNNY   71  46  40 NW13G23   30.28S
PAGOSA SPRINGS MOSUNNY   64  37  37 SW5       30.32F
TELLURIDE      NOT AVBL
WOLF CREEK PAS CLOUDY    41  34  75 N6        30.54S
$$

COZ009-010-012-014-032>034-037-058>063-281900-
...CENTRAL COLORADO...

CITY           SKY/WX    TMP DP  RH WIND       PRES   REMARKS
ASPEN          LGT RAIN  52  46  80 N6        30.37S
BUENA VISTA    PTSUNNY   63  38  38 W10G16    30.30S
COPPER MTN     RAIN      41  37  87 W15G23    30.53R VSB<1/4
BERTHOUD PASS  FOG       32  32 100 NW20G28   30.54R VSB<1/4 WCI  20
COTTONWOOD PAS LGT RAIN  54  43  66 NW3       30.41S
GUNNISON       PTSUNNY   57  45  62 SW12      30.36S
KREMMLING      LGT RAIN  52  45  76 NW6       30.36R
LEADVILLE      LGT RAIN  46  40  79 NW10G18   30.41S
MONARCH PASS   FOG       37  37 100 W15       30.62S VSB<1/4
SALIDA         PTSUNNY   67  40  37 SW9       30.34S
SUNLIGHT       LGT RAIN  43  43 100 W6        30.53S VSB<1/4
WILKERSON PASS NOT AVBL
$$

COZ069>075-281900-
...SAN LUIS VALLEY/SANGRE DE CRISTO MOUNTAINS...

CITY           SKY/WX    TMP DP  RH WIND       PRES   REMARKS
ALAMOSA        CLOUDY    63  39  41 VRB6      30.31F
LA VETA PASS   NOT AVBL
SAGUACHE       NOT AVBL
$$

COZ035-036-038>040-281900-
...NORTHERN COLORADO FRONT RANGE...

CITY           SKY/WX    TMP DP  RH WIND       PRES   REMARKS
DENVER INTL AP PTSUNNY   71  48  43 N16       30.15S
DMNS CITY PARK   N/A     74  43  32 NE9       30.14S
AURORA         PTSUNNY   71  46  41 N8        30.16F
FRONT RANGE AP NOT AVBL
ERIE MUNI ARPT CLOUDY    69  48  46 N10       30.15R
BOULDER MUN AP CLOUDY    64  52  63 N3        30.16R
CENTENNIAL     PTSUNNY   71  41  33 VRB7      30.16F
BROOMFIELD     PTSUNNY   66  52  59 NW9       30.18R
FORT COLLINS   CLOUDY    64  48  55 N21       30.16S
LONGMONT       CLOUDY    70  53  54 NE6       30.17R
$$

COZ041-046-047-076>085-087-088-281900-
...PIKES PEAK/PALMER DIVIDE AND SOUTHERN FOOTHILLS...

CITY           SKY/WX    TMP DP  RH WIND       PRES   REMARKS
COLO. SPRINGS  PTSUNNY   70  41  34 VRB5      30.18F
A. F. ACADEMY  MOSUNNY   66  43  42 W8        30.19F
ELLICOTT       MOSUNNY   68  44  42 VRB3      30.17F
FALCON         MOSUNNY   67  40  37 N7        30.22F
FORT CARSON    MOSUNNY   70  45  40 SE8       30.16F
LIMON          PTSUNNY   71  46  40 N9        30.14F
MONUMENT HILL  MOSUNNY   64  39  39 N10       30.23S
TRINIDAD       PTSUNNY   73  39  29 VRB3      30.15F
$$

COZ042>045-048>051-090-091-281900-
...NORTHEAST COLORADO...

CITY           SKY/WX    TMP DP  RH WIND       PRES   REMARKS
GREELEY ARPT   PTSUNNY   64  50  59 NW23G29   30.14F
AKRON          MOSUNNY   71  53  52 NW15      30.08F
BURLINGTON     SUNNY     75  51  43 NW18G25   30.05F
WRAY             N/A     77  58  50 NW10G18   30.03F
STERLING       PTSUNNY   77  59  53 N15G23    30.05F
HOLYOKE        MOSUNNY   79  63  57 NW9       30.01F
FORT MORGAN    PTSUNNY   72  51  47 NW12G18   30.10F
$$

COZ086-089-092>099-281900-
...SOUTHEAST COLORADO...

CITY           SKY/WX    TMP DP  RH WIND       PRES   REMARKS
PUEBLO         PTSUNNY   71  46  40 CALM      30.11F
LA JUNTA       PTSUNNY   77  50  38 VRB7      30.07F
LAMAR          SUNNY     78  54  43 N10       30.02F
SPRINGFIELD      N/A     77  51  40 NW14G24   30.07S
$$



USA.gov is the U.S. government's official web portal to all federal, state and local government web resources and services.